Showing default

DIRECTV 15, 40663

Orbit data source: Space-Track

DIRECTV 15, 40663 is a payload satellite owned by DirecTV (US) in GEO that was launched on Wed, 27 May 2015 UTC via an ARIANE 5ECA launch vehicle from the French Guiana (FRGUI). Payload-class satellites include a variety of spacecraft equipped with specific instruments for various scientific and technological missions. These include communications satellites like Starlink; space stations such as the ISS; scientific satellites like the Hubble; Earth observation satellites from companies like Planet Labs, Umbra, and HawkEye 360; GPS; miniature CubeSats for education and research; and military/defense satellites.

Loading next visibility...
Identifier
40663, 2015-026A
Orbit
GEO
Country
Flag of USUS
Related business
Manufacturer
Airbus/Toulouse
Mission
Operational Commercial Communications
Bus & Motor
EUROSTAR 3000, R-4D?
Mass
6,205 kg wet, 3,381 kg dry
Launch date (UTC)
2015-05-27 (11 years ago)
Launch vehicle
ARIANE 5ECA
Launch site
French Guiana (FRGUI)
Object type
Payload
Rocket body
Debris
Shape & HBR
Box + 2 Pan, 22.5 m
Radar Cross Section
49.053 m², Large (>1 m²)

Expand to show TLE details & history
Last TLE update: 2 days ago

TLE from 2 days ago
0 DIRECTV 15
1 40663U 15026A   26171.01518352 -.00000108  00000-0  00000-0 0  9995
2 40663   0.0158  57.5517 0000219 316.6058 156.6548  1.00273256 40494
Epoch: 2026-06-20T00:21Z
TLE epoch observation values (Epoch: 2026-06-20T00:21:51.856Z)
Latitude
0.0184°
Longitude
-102.87605°
Altitude
35,786.515 km
Speed
3.075 km/s
True Right ascension
11h 23m 18s
True Declination
0° 01' 06"
Sunlit
Object was in daylight at epoch
Visualization orbit readout
Latitude
Unknown
Longitude
Unknown
Altitude
Unknown
Speed
Unknown
Apparent Right ascension
Unknown
Apparent Declination
Unknown
Sunlit
N/A
Visualization observer readout
Local Sidereal Time
21:38:20
Azimuth
Unknown
Elevation
Unknown
Doppler factor
Unknown
Orbital elements
Apogee altitude
35,788.176 km
Perigee altitude
35,786.33 km
Semi-major axis
42,165.39 km
Eccentricity
0.00002
Inclination
0.0158°
RAAN
57.5517°
Arg. of periapsis
316.6058°
True anomaly
156.65579°
Mean anomaly
156.6548°
Eccentric anomaly
156.6553°
Mean motion
0.25067 °/min
Orbital period
1,436.13 mins
BSTAR
0
Loading maneuver chart data...
Computing Atmospheric mass density...
Loading historical data...
Loading historical data...
Loading historical data...
Loading historical data...
Loading historical data...
Loading historical data...
Loading historical data...
Other satellites on launch #26 in the year 2015 (2015-05-27 UTC)

Documentation

Showing up to 5 results
|